Simultaneous Nadir Overpasses (SNOs) Predictions

Prediction of SNOs over PacNW region [( 10.00, 139.50) to ( 22.70, 165.60)] between AQUA and NPP Satellites:

Table of predicted SNOs over PacNW region for the next 30.0 days since TLE Epoch: 3/28/2015
Index Date (AQUA) Time (AQUA) AQUA Lat,Lon Date (NPP) Time (NPP) NPP Lat,Lon Distance(km) Time Diff (sec)
1 03/29/2015 16:22:08 10.02, 140.05 03/29/2015 16:18:38 6.14, 138.96 447.34 210
2 04/04/2015 03:29:04 10.09, 150.40 04/04/2015 03:29:09 9.74, 148.87 171.29 5
3 04/12/2015 02:40:48 14.69, 161.77 04/12/2015 02:39:31 14.43, 160.50 140.05 77
4 04/14/2015 16:22:00 10.04, 140.09 04/14/2015 16:18:31 5.10, 138.76 569.55 209
5 04/20/2015 03:28:44 10.10, 150.49 04/20/2015 03:28:43 9.74, 148.92 176.86 1
